TimeAKST,TemperatureF,Dew PointF,Humidity,Sea Level PressureIn,VisibilityMPH,Wind Direction,Wind SpeedMPH,Gust SpeedMPH,PrecipitationIn,Events,Conditions,WindDirDegrees,DateUTC
12:16 AM,26.6,21.2,80,29.69,1.0,North,4.6,-,N/A,,Overcast,360,2012-12-07 09:16:00
12:36 AM,26.6,21.2,80,29.69,1.2,NNW,3.5,-,N/A,,Overcast,330,2012-12-07 09:36:00
12:56 AM,26.6,21.2,80,29.70,2.0,WNW,10.4,-,N/A,,Overcast,290,2012-12-07 09:56:00
1:16 AM,24.8,21.2,86,29.71,1.5,NW,5.8,-,N/A,,Overcast,320,2012-12-07 10:16:00
1:36 AM,26.6,21.2,80,29.72,1.5,North,5.8,-,N/A,,Overcast,350,2012-12-07 10:36:00
1:56 AM,26.6,23.0,86,29.73,2.5,NNW,4.6,-,N/A,,Overcast,340,2012-12-07 10:56:00
2:16 AM,24.8,19.4,80,29.73,3.0,NNW,5.8,-,N/A,,Overcast,330,2012-12-07 11:16:00
2:36 AM,24.8,21.2,86,29.74,3.0,NNW,5.8,-,N/A,,Overcast,340,2012-12-07 11:36:00
2:56 AM,26.6,21.2,80,29.74,3.0,WNW,6.9,-,N/A,,Overcast,290,2012-12-07 11:56:00
3:16 AM,24.8,21.2,86,29.75,3.0,NNW,8.1,-,N/A,,Overcast,330,2012-12-07 12:16:00
3:36 AM,24.8,21.2,86,29.76,9.0,NNW,6.9,-,N/A,,Overcast,330,2012-12-07 12:36:00
3:56 AM,24.8,21.2,86,29.77,10.0,NNW,4.6,-,N/A,,Overcast,330,2012-12-07 12:56:00
4:16 AM,26.6,21.2,80,29.77,10.0,NNW,5.8,-,N/A,,Overcast,330,2012-12-07 13:16:00
4:36 AM,24.8,21.2,86,29.78,10.0,NNW,5.8,-,N/A,,Overcast,330,2012-12-07 13:36:00
4:56 AM,26.6,21.2,80,29.78,10.0,North,4.6,-,N/A,,Overcast,360,2012-12-07 13:56:00
5:16 AM,26.6,21.2,80,29.79,10.0,NW,4.6,-,N/A,,Overcast,320,2012-12-07 14:16:00
5:36 AM,26.6,21.2,80,29.80,10.0,NW,6.9,-,N/A,,Overcast,310,2012-12-07 14:36:00
5:56 AM,24.8,21.2,86,29.80,10.0,NNW,4.6,-,N/A,,Overcast,330,2012-12-07 14:56:00
6:16 AM,26.6,21.2,80,29.81,10.0,Calm,Calm,-,N/A,,Overcast,0,2012-12-07 15:16:00
6:36 AM,26.6,21.2,80,29.81,10.0,NNW,6.9,-,N/A,,Overcast,330,2012-12-07 15:36:00
6:56 AM,24.8,19.4,80,29.82,10.0,NNW,5.8,-,N/A,,Overcast,340,2012-12-07 15:56:00
7:16 AM,26.6,21.2,80,29.82,10.0,North,4.6,-,N/A,,Overcast,350,2012-12-07 16:16:00
7:36 AM,26.6,21.2,80,29.83,10.0,NNW,5.8,-,N/A,,Overcast,340,2012-12-07 16:36:00
7:56 AM,26.6,21.2,80,29.84,10.0,NNW,8.1,-,N/A,,Overcast,330,2012-12-07 16:56:00
8:16 AM,24.8,19.4,80,29.84,10.0,NW,8.1,-,N/A,,Overcast,320,2012-12-07 17:16:00
8:36 AM,24.8,19.4,80,29.85,10.0,NNW,6.9,-,N/A,,Overcast,330,2012-12-07 17:36:00
8:56 AM,26.6,19.4,74,29.86,10.0,NW,8.1,-,N/A,,Overcast,310,2012-12-07 17:56:00
9:16 AM,26.6,19.4,74,29.87,10.0,NW,6.9,-,N/A,,Overcast,320,2012-12-07 18:16:00
9:36 AM,26.6,19.4,74,29.88,10.0,NNW,4.6,-,N/A,,Overcast,330,2012-12-07 18:36:00
9:56 AM,26.6,19.4,74,29.89,10.0,NNW,4.6,-,N/A,,Overcast,330,2012-12-07 18:56:00
10:16 AM,26.6,21.2,80,29.90,10.0,North,4.6,-,N/A,,Overcast,360,2012-12-07 19:16:00
10:36 AM,26.6,19.4,74,29.91,10.0,Calm,Calm,-,N/A,,Overcast,0,2012-12-07 19:36:00
10:56 AM,26.6,21.2,80,29.91,10.0,NNW,6.9,-,N/A,,Mostly Cloudy,330,2012-12-07 19:56:00
11:16 AM,24.8,19.4,80,29.92,10.0,NW,8.1,-,N/A,,Mostly Cloudy,320,2012-12-07 20:16:00
11:36 AM,26.6,19.4,74,29.93,10.0,NNW,6.9,-,N/A,,Mostly Cloudy,330,2012-12-07 20:36:00
11:56 AM,24.8,19.4,80,29.94,10.0,NNW,6.9,-,N/A,,Mostly Cloudy,330,2012-12-07 20:56:00
12:16 PM,24.8,17.6,74,29.94,10.0,NW,8.1,-,N/A,,Mostly Cloudy,320,2012-12-07 21:16:00
12:36 PM,24.8,19.4,80,29.95,10.0,NW,8.1,-,N/A,,Mostly Cloudy,320,2012-12-07 21:36:00
12:56 PM,24.8,19.4,80,29.96,10.0,NW,8.1,-,N/A,,Mostly Cloudy,320,2012-12-07 21:56:00
1:16 PM,26.6,19.4,74,29.96,10.0,NNW,5.8,-,N/A,,Mostly Cloudy,340,2012-12-07 22:16:00
1:36 PM,24.8,19.4,80,29.97,10.0,NNW,6.9,-,N/A,,Mostly Cloudy,330,2012-12-07 22:36:00
1:56 PM,24.8,17.6,74,29.98,10.0,NW,6.9,-,N/A,,Mostly Cloudy,320,2012-12-07 22:56:00
2:16 PM,24.8,19.4,80,29.99,10.0,NNW,5.8,-,N/A,,Overcast,340,2012-12-07 23:16:00
2:36 PM,24.8,17.6,74,29.99,10.0,NNW,6.9,-,N/A,,Overcast,340,2012-12-07 23:36:00
2:56 PM,24.8,17.6,74,29.99,10.0,NNW,8.1,-,N/A,,Overcast,330,2012-12-07 23:56:00
3:16 PM,24.8,17.6,74,30.00,10.0,NNW,8.1,-,N/A,,Overcast,340,2012-12-08 00:16:00
3:36 PM,24.8,17.6,74,30.01,10.0,NNW,5.8,-,N/A,,Overcast,330,2012-12-08 00:36:00
3:56 PM,24.8,17.6,74,30.01,10.0,NW,8.1,-,N/A,,Overcast,320,2012-12-08 00:56:00
4:16 PM,24.8,17.6,74,30.02,10.0,NNW,6.9,-,N/A,,Overcast,330,2012-12-08 01:16:00
4:36 PM,24.8,17.6,74,30.03,10.0,NNW,8.1,-,N/A,,Overcast,330,2012-12-08 01:36:00
4:56 PM,24.8,19.4,80,30.04,10.0,NNW,8.1,-,N/A,,Overcast,330,2012-12-08 01:56:00
5:16 PM,24.8,17.6,74,30.04,10.0,NNW,8.1,-,N/A,,Overcast,330,2012-12-08 02:16:00
5:36 PM,23.0,17.6,80,30.05,10.0,NNW,6.9,-,N/A,,Overcast,330,2012-12-08 02:36:00
5:56 PM,21.2,17.6,86,30.06,10.0,NNW,6.9,-,N/A,,Overcast,330,2012-12-08 02:56:00
6:16 PM,23.0,17.6,80,30.07,10.0,NNW,6.9,-,N/A,,Overcast,340,2012-12-08 03:16:00
6:36 PM,23.0,17.6,80,30.07,10.0,NNW,5.8,-,N/A,,Overcast,330,2012-12-08 03:36:00
6:56 PM,23.0,17.6,80,30.08,10.0,NNW,6.9,-,N/A,,Overcast,340,2012-12-08 03:56:00
7:16 PM,23.0,17.6,80,30.09,10.0,NW,5.8,-,N/A,,Overcast,320,2012-12-08 04:16:00
7:36 PM,23.0,17.6,80,30.09,10.0,NNW,4.6,-,N/A,,Overcast,340,2012-12-08 04:36:00
7:56 PM,23.0,15.8,74,30.10,10.0,North,3.5,-,N/A,,Overcast,350,2012-12-08 04:56:00
8:16 PM,21.2,15.8,80,30.10,10.0,NW,5.8,-,N/A,,Overcast,310,2012-12-08 05:16:00
8:36 PM,21.2,15.8,80,30.11,10.0,NW,5.8,-,N/A,,Overcast,320,2012-12-08 05:36:00
8:56 PM,21.2,15.8,80,30.12,10.0,NW,5.8,-,N/A,,Overcast,320,2012-12-08 05:56:00
9:16 PM,21.2,15.8,80,30.13,10.0,NNW,4.6,-,N/A,,Overcast,330,2012-12-08 06:16:00
9:36 PM,21.2,17.6,86,30.13,10.0,North,6.9,-,N/A,,Overcast,350,2012-12-08 06:36:00
9:56 PM,21.2,15.8,80,30.14,10.0,North,5.8,-,N/A,,Overcast,350,2012-12-08 06:56:00
10:16 PM,21.2,15.8,80,30.15,10.0,NNW,5.8,-,N/A,,Overcast,340,2012-12-08 07:16:00
10:36 PM,21.2,17.6,86,30.15,10.0,NNW,5.8,-,N/A,,Overcast,330,2012-12-08 07:36:00
10:56 PM,21.2,15.8,80,30.16,10.0,NNW,5.8,-,N/A,,Overcast,340,2012-12-08 07:56:00
11:16 PM,21.2,15.8,80,30.16,10.0,NNW,6.9,-,N/A,,Overcast,340,2012-12-08 08:16:00
11:36 PM,21.2,15.8,80,30.17,10.0,NNW,6.9,-,N/A,,Overcast,340,2012-12-08 08:36:00
11:56 PM,21.2,15.8,80,30.17,10.0,NNW,8.1,-,N/A,,Overcast,340,2012-12-08 08:56:00